User: anonymous   Login
Location: Unspecified
(0.0000°N, 0.0000°E)
Time: 23:21:18
(UTC+00:00)
Language:

APRIZESAT 10 - Orbit

View from above orbital plane
View from above orbital plane
View from above satellite
View from above satellite

Ground track
Ground track

The orbit data is extracted from the following two-line orbital elements,

1 40019U 14033K   24176.42843721  .00000780  00000-0  13481-3 0  9991
2 40019  97.8692 313.5738 0082709  62.1666 298.7890 14.68880139536061
Epoch (UTC): 24 June 2024 10:16:56
Eccentricity: 0.0082709
inclination: 97.8692°
perigee height: 606 km
apogee height: 723 km
right ascension of ascending node: 313.5738°
argument of perigee: 62.1666°
revolutions per day: 14.68880139
mean anomaly at epoch: 298.7890°
orbit number at epoch: 53606

The dashed part of the orbit path shows where the satellite is in the earth's shadow,  

DLR